TITAN 3C TRANSTAGE DEB, 43454

Orbit data source: Space-Track

TITAN 3C TRANSTAGE DEB, 43454 is space debris in GEO originally from a launch on Sun, 09 Feb 1969 UTC launched from the Air Force Eastern Test Range (AFETR). Debris objects in space refer to the collection of defunct objects orbiting the Earth. Examples of debris include non-operational satellites, rocket bodies, and fragments generated from explosions, collisions, or faulty payload assembly.

Not visible in the next 10 days
Identifier
43454, 1969-013M
Orbit
GEO
Last TLE update
1 day ago
Origin
Manufacturer
Martin Marietta
Mission
Spacecraft
Bus & Motor
Unknown
Mass
Unknown
Launch date (UTC)
1969-02-09 (56 years ago)
Launch vehicle
Unknown
Launch site
Air Force Eastern Test Range (AFETR)
Object type
Payload
Rocket body
Debris
Shape & HBR
Unknown
Radar Cross Section
RCS unknown

Expand to show TLE details & history

TLE from 1 day ago
0 TITAN 3C TRANSTAGE DEB
1 43454U 69013M   25180.97549713 -.00000297  00000-0  00000-0 0  9999
2 43454   0.7083 181.0174 0555584 285.8483 259.3090  1.02846529 27017
Epoch: 2025-06-29T23:24Z
TLE epoch observation values (Epoch: 2025-06-29T23:24:42.952Z)
Latitude
0.00482°
Longitude
90.52906°
Altitude
35,627.728 km
Speed
3.06 km/s
True Right ascension
23h 59m 59s
True Declination
0° 00' 17"
Sunlit
Object was in daylight at epoch
Visualization orbit readout
Latitude
-0.08945°
Longitude
-96.43989°
Altitude
34,041.137 km
Speed
3.179 km/s
Apparent Right ascension
11h 15m 35s
Apparent Declination
-5° 20' 13"
Sunlit
Object is in daylight
Visualization observer readout
Local Sidereal Time
20:49:36
Azimuth
306.753° NW
Elevation
-42.345°
Doppler factor
1
Orbital elements
Apogee altitude
37,384.397 km
Perigee altitude
32,777.591 km
Semi-major axis
41,459.131 km
Eccentricity
0.05556
Inclination
0.7083°
RAAN
181.0174°
Arg. of periapsis
285.8483°
True anomaly
Unknown
Mean anomaly
259.309°
Eccentric anomaly
Unknown
Mean motion
0.25711 °/min
Orbital period
1,400.2 mins
BSTAR
0
Loading historical data...
43454 neighbors
Loading maneuver chart data...
Loading SW <> Apogee altitude chart data...

TITAN 3C TRANSTAGE DEB Visibility

Observer location: undefined°, undefined°

TITAN 3C TRANSTAGE DEB is likely not visible in the next few days
Span
Click to sort rows by Start time (UTC) header in descending order
Start Az.
Max El. time (UTC)
Max El. Az.
Max El.
End time (UTC)
End Az.
|